| time (UTC) | temp C | wind direction | speed KPH | gust KPH | rain 1hr cm | rain 24hr cm | rain mn cm | humidity % | barometer mb |
| 20260510224558 | 15 | 189 | 1.6 | 1.6 | 0.00 | 0.00 | 0.00 | 34 | 1019.1 |
| 20260510224055 | 16 | 261 | 3.2 | 3.2 | 0.00 | 0.00 | 0.00 | 34 | 1019.1 |
| 20260510223553 | 16 | 228 | 3.2 | 3.2 | 0.00 | 0.00 | 0.00 | 33 | 1018.8 |
| 20260510223050 | 16 | 288 | 4.8 | 4.8 | 0.00 | 0.00 | 0.00 | 33 | 1018.8 |
| 20260510222547 | 16 | 179 | 0.0 | 1.6 | 0.00 | 0.00 | 0.00 | 33 | 1018.8 |
| 20260510222043 | 16 | 176 | 1.6 | 3.2 | 0.00 | 0.00 | 0.00 | 34 | 1018.8 |
| 20260510221539 | 16 | 184 | 1.6 | 1.6 | 0.00 | 0.00 | 0.00 | 33 | 1018.4 |
| 20260510221035 | 16 | 186 | 3.2 | 6.4 | 0.00 | 0.00 | 0.00 | 33 | 1018.4 |
| 20260510220532 | 16 | 185 | 1.6 | 3.2 | 0.00 | 0.00 | 0.00 | 34 | 1018.4 |
| 20260510220028 | 16 | 115 | 3.2 | 3.2 | 0.00 | 0.00 | 0.00 | 33 | 1018.4 |
| 20260510215525 | 16 | 289 | 4.8 | 4.8 | 0.00 | 0.00 | 0.00 | 32 | 1018.4 |
| 20260510215023 | 16 | 191 | 4.8 | 6.4 | 0.00 | 0.00 | 0.00 | 32 | 1018.4 |
| 20260510214520 | 16 | 205 | 1.6 | 3.2 | 0.00 | 0.00 | 0.00 | 34 | 1018.1 |
| 20260510214016 | 16 | 286 | 4.8 | 6.4 | 0.00 | 0.00 | 0.00 | 31 | 1018.4 |
| 20260510213514 | 16 | 252 | 3.2 | 3.2 | 0.00 | 0.00 | 0.00 | 33 | 1018.4 |
| 20260510213010 | 16 | 277 | 4.8 | 9.7 | 0.00 | 0.00 | 0.00 | 33 | 1018.1 |
| 20260510212506 | 16 | 108 | 1.6 | 3.2 | 0.00 | 0.00 | 0.00 | 33 | 1018.1 |
| 20260510212003 | 16 | 345 | 9.7 | 12.9 | 0.00 | 0.00 | 0.00 | 32 | 1018.1 |
| 20260510211501 | 16 | 167 | 0.0 | 1.6 | 0.00 | 0.00 | 0.00 | 32 | 1018.4 |
| 20260510211000 | 17 | 212 | 3.2 | 3.2 | 0.00 | 0.00 | 0.00 | 31 | 1018.1 |
| 20260510210456 | 16 | 206 | 1.6 | 3.2 | 0.00 | 0.00 | 0.00 | 31 | 1018.1 |
| 20260510205956 | 16 | 29 | 4.8 | 6.4 | 0.00 | 0.00 | 0.00 | 31 | 1018.1 |
| 20260510205451 | 17 | 280 | 3.2 | 3.2 | 0.00 | 0.00 | 0.00 | 31 | 1018.1 |
| 20260510204947 | 16 | 279 | 6.4 | 9.7 | 0.00 | 0.00 | 0.00 | 32 | 1018.1 |
| 20260510204444 | 16 | 293 | 9.7 | 11.3 | 0.00 | 0.00 | 0.00 | 31 | 1018.1 |
| 20260510203939 | 17 | 253 | 3.2 | 4.8 | 0.00 | 0.00 | 0.00 | 31 | 1018.1 |
| 20260510203438 | 17 | 290 | 4.8 | 6.4 | 0.00 | 0.00 | 0.00 | 31 | 1017.8 |
| 20260510202932 | 17 | 211 | 4.8 | 6.4 | 0.00 | 0.00 | 0.00 | 30 | 1018.4 |
| 20260510202428 | 17 | 190 | 1.6 | 1.6 | 0.00 | 0.00 | 0.00 | 31 | 1018.1 |
| 20260510201925 | 17 | 191 | 1.6 | 1.6 | 0.00 | 0.00 | 0.00 | 31 | 1018.1 |
| 20260510201422 | 17 | 187 | 4.8 | 6.4 | 0.00 | 0.00 | 0.00 | 32 | 1018.1 |
| 20260510200918 | 17 | 290 | 9.7 | 12.9 | 0.00 | 0.00 | 0.00 | 30 | 1018.1 |
| 20260510200419 | 17 | 193 | 4.8 | 9.7 | 0.00 | 0.00 | 0.00 | 30 | 1018.4 |
| 20260510195912 | 16 | 191 | 0.0 | 1.6 | 0.00 | 0.00 | 0.00 | 31 | 1018.4 |
| 20260510195409 | 16 | 88 | 4.8 | 6.4 | 0.00 | 0.00 | 0.00 | 31 | 1018.4 |
| 20260510194904 | 16 | 84 | 1.6 | 1.6 | 0.00 | 0.00 | 0.00 | 32 | 1018.4 |
| 20260510194401 | 15 | 251 | 3.2 | 4.8 | 0.00 | 0.00 | 0.00 | 32 | 1018.8 |
| 20260510193857 | 15 | 186 | 1.6 | 3.2 | 0.00 | 0.00 | 0.00 | 33 | 1018.4 |
| 20260510193352 | 15 | 175 | 1.6 | 3.2 | 0.00 | 0.00 | 0.00 | 33 | 1018.4 |
| 20260510192848 | 16 | 168 | 1.6 | 3.2 | 0.00 | 0.00 | 0.00 | 32 | 1018.8 |
| 20260510192343 | 16 | 182 | 3.2 | 3.2 | 0.00 | 0.00 | 0.00 | 32 | 1018.4 |
| 20260510191839 | 16 | 157 | 1.6 | 1.6 | 0.00 | 0.00 | 0.00 | 31 | 1018.4 |
| 20260510191335 | 16 | 125 | 3.2 | 4.8 | 0.00 | 0.00 | 0.00 | 33 | 1018.8 |
| 20260510190833 | 15 | 193 | 3.2 | 3.2 | 0.00 | 0.00 | 0.00 | 31 | 1018.8 |
| 20260510190331 | 16 | 172 | 3.2 | 6.4 | 0.00 | 0.00 | 0.00 | 32 | 1018.4 |
| 20260510185826 | 16 | 168 | 3.2 | 4.8 | 0.00 | 0.00 | 0.00 | 32 | 1018.4 |
| 20260510185325 | 16 | 109 | 3.2 | 4.8 | 0.00 | 0.00 | 0.00 | 31 | 1018.8 |
| 20260510184822 | 16 | 294 | 6.4 | 9.7 | 0.00 | 0.00 | 0.00 | 31 | 1018.8 |
| 20260510184319 | 16 | 283 | 3.2 | 6.4 | 0.00 | 0.00 | 0.00 | 31 | 1018.4 |
| 20260510183813 | 16 | 222 | 4.8 | 6.4 | 0.00 | 0.00 | 0.00 | 32 | 1018.4 |
| 20260510183308 | 16 | 22 | 1.6 | 3.2 | 0.00 | 0.00 | 0.00 | 32 | 1018.4 |
| 20260510182804 | 16 | 192 | 1.6 | 3.2 | 0.00 | 0.00 | 0.00 | 31 | 1018.4 |
| 20260510182301 | 17 | 180 | 1.6 | 3.2 | 0.00 | 0.00 | 0.00 | 32 | 1018.4 |
| 20260510181757 | 17 | 186 | 1.6 | 3.2 | 0.00 | 0.00 | 0.00 | 31 | 1018.1 |
| 20260510181254 | 16 | 235 | 1.6 | 3.2 | 0.00 | 0.00 | 0.00 | 30 | 1018.4 |
| 20260510180750 | 15 | 179 | 1.6 | 1.6 | 0.00 | 0.00 | 0.00 | 33 | 1018.1 |
| 20260510180248 | 16 | 101 | 0.0 | 1.6 | 0.00 | 0.00 | 0.00 | 33 | 1018.4 |
| 20260510175745 | 16 | 215 | 3.2 | 3.2 | 0.00 | 0.00 | 0.00 | 33 | 1018.1 |
| 20260510175240 | 15 | 108 | 4.8 | 4.8 | 0.00 | 0.00 | 0.00 | 30 | 1018.4 |
| 20260510174737 | 15 | 159 | 0.0 | 1.6 | 0.00 | 0.00 | 0.00 | 29 | 1018.4 |
| 20260510174235 | 16 | 203 | 4.8 | 4.8 | 0.00 | 0.00 | 0.00 | 30 | 1018.1 |
| 20260510173731 | 16 | 193 | 3.2 | 4.8 | 0.00 | 0.00 | 0.00 | 31 | 1018.4 |
| 20260510173226 | 16 | 226 | 6.4 | 9.7 | 0.00 | 0.00 | 0.00 | 30 | 1018.1 |
| 20260510172722 | 15 | 91 | 3.2 | 3.2 | 0.00 | 0.00 | 0.00 | 33 | 1018.1 |
| 20260510172218 | 15 | 223 | 3.2 | 3.2 | 0.00 | 0.00 | 0.00 | 31 | 1018.1 |
| 20260510171715 | 15 | 0 | 3.2 | 3.2 | 0.00 | 0.00 | 0.00 | 30 | 1018.1 |
| 20260510171213 | 15 | 113 | 3.2 | 4.8 | 0.00 | 0.00 | 0.00 | 32 | 1018.4 |
| 20260510170709 | 15 | 48 | 1.6 | 3.2 | 0.00 | 0.00 | 0.00 | 30 | 1018.4 |
| 20260510170205 | 15 | 197 | 1.6 | 1.6 | 0.00 | 0.00 | 0.00 | 35 | 1018.4 |
| 20260510165702 | 15 | 164 | 1.6 | 1.6 | 0.00 | 0.00 | 0.00 | 31 | 1018.4 |
| 20260510165158 | 15 | 160 | 0.0 | 1.6 | 0.00 | 0.00 | 0.00 | 29 | 1018.8 |
| 20260510164655 | 15 | 306 | 3.2 | 6.4 | 0.00 | 0.00 | 0.00 | 30 | 1018.8 |
| 20260510164153 | 15 | 259 | 8.0 | 9.7 | 0.00 | 0.00 | 0.00 | 31 | 1018.4 |
| 20260510163648 | 15 | 50 | 6.4 | 11.3 | 0.00 | 0.00 | 0.00 | 33 | 1018.4 |
| 20260510163144 | 15 | 290 | 6.4 | 9.7 | 0.00 | 0.00 | 0.00 | 31 | 1018.4 |
| 20260510162643 | 15 | 144 | 3.2 | 3.2 | 0.00 | 0.00 | 0.00 | 36 | 1018.4 |
| 20260510162141 | 15 | 191 | 1.6 | 1.6 | 0.00 | 0.00 | 0.00 | 33 | 1018.4 |
| 20260510161636 | 15 | 291 | 3.2 | 4.8 | 0.00 | 0.00 | 0.00 | 33 | 1018.4 |
| 20260510161133 | 15 | 56 | 3.2 | 4.8 | 0.00 | 0.00 | 0.00 | 33 | 1018.4 |
| 20260510160630 | 15 | 265 | 3.2 | 4.8 | 0.00 | 0.00 | 0.00 | 34 | 1018.1 |
| 20260510160130 | 15 | 168 | 3.2 | 4.8 | 0.00 | 0.00 | 0.00 | 32 | 1018.4 |
| 20260510155626 | 15 | 203 | 1.6 | 1.6 | 0.00 | 0.00 | 0.00 | 35 | 1018.4 |
| 20260510155123 | 14 | 185 | 3.2 | 3.2 | 0.00 | 0.00 | 0.00 | 38 | 1018.1 |
| 20260510154618 | 15 | 68 | 4.8 | 6.4 | 0.00 | 0.00 | 0.00 | 35 | 1018.4 |
| 20260510154114 | 15 | 66 | 6.4 | 11.3 | 0.00 | 0.00 | 0.00 | 33 | 1018.1 |
| 20260510153609 | 14 | 54 | 1.6 | 1.6 | 0.00 | 0.00 | 0.00 | 40 | 1018.1 |
| 20260510153106 | 15 | 161 | 1.6 | 1.6 | 0.00 | 0.00 | 0.00 | 35 | 1018.1 |
| 20260510152603 | 14 | 0 | 3.2 | 3.2 | 0.00 | 0.00 | 0.00 | 37 | 1018.1 |
| 20260510152059 | 14 | 331 | 4.8 | 6.4 | 0.00 | 0.00 | 0.00 | 37 | 1018.1 |
| 20260510151555 | 14 | 163 | 3.2 | 4.8 | 0.00 | 0.00 | 0.00 | 37 | 1017.8 |
| 20260510151053 | 13 | 156 | 1.6 | 1.6 | 0.00 | 0.00 | 0.00 | 39 | 1017.8 |
| 20260510150548 | 13 | 131 | 1.6 | 3.2 | 0.00 | 0.00 | 0.00 | 41 | 1017.8 |
| 20260510150044 | 13 | 207 | 1.6 | 1.6 | 0.00 | 0.00 | 0.00 | 39 | 1017.8 |
| 20260510145541 | 13 | 147 | 1.6 | 1.6 | 0.00 | 0.00 | 0.00 | 40 | 1017.8 |
| 20260510145038 | 13 | 116 | 0.0 | 1.6 | 0.00 | 0.00 | 0.00 | 43 | 1017.8 |
| 20260510144534 | 13 | 216 | 1.6 | 3.2 | 0.00 | 0.00 | 0.00 | 41 | 1017.8 |
| 20260510144030 | 12 | 181 | 1.6 | 1.6 | 0.00 | 0.00 | 0.00 | 42 | 1017.8 |
| 20260510143525 | 12 | 98 | 3.2 | 3.2 | 0.00 | 0.00 | 0.00 | 42 | 1017.8 |
| 20260510143023 | 12 | 66 | 1.6 | 4.8 | 0.00 | 0.00 | 0.00 | 44 | 1017.4 |
| 20260510142519 | 12 | 33 | 4.8 | 6.4 | 0.00 | 0.00 | 0.00 | 41 | 1017.8 |
| 20260510142016 | 12 | 175 | 0.0 | 0.0 | 0.00 | 0.00 | 0.00 | 43 | 1017.4 |
| 20260510141512 | 12 | 117 | 1.6 | 3.2 | 0.00 | 0.00 | 0.00 | 44 | 1017.4 |
| 20260510141009 | 12 | 195 | 1.6 | 1.6 | 0.00 | 0.00 | 0.00 | 44 | 1017.4 |
| 20260510140506 | 12 | 132 | 1.6 | 1.6 | 0.00 | 0.00 | 0.00 | 43 | 1017.8 |
| 20260510140000 | 12 | 95 | 3.2 | 4.8 | 0.00 | 0.00 | 0.00 | 46 | 1017.4 |
| 20260510135455 | 12 | 159 | 1.6 | 1.6 | 0.00 | 0.00 | 0.00 | 46 | 1017.1 |
| 20260510134953 | 12 | 185 | 1.6 | 1.6 | 0.00 | 0.00 | 0.00 | 46 | 1017.4 |
| 20260510134450 | 11 | 72 | 1.6 | 3.2 | 0.00 | 0.00 | 0.00 | 47 | 1017.8 |
| 20260510133947 | 11 | 62 | 1.6 | 3.2 | 0.00 | 0.00 | 0.00 | 46 | 1017.8 |
| 20260510133442 | 11 | 200 | 3.2 | 4.8 | 0.00 | 0.00 | 0.00 | 47 | 1017.4 |
| 20260510132938 | 11 | 40 | 6.4 | 9.7 | 0.00 | 0.00 | 0.00 | 48 | 1017.4 |
| 20260510132436 | 11 | 129 | 1.6 | 1.6 | 0.00 | 0.00 | 0.00 | 49 | 1017.4 |
| 20260510131932 | 11 | 91 | 4.8 | 4.8 | 0.00 | 0.00 | 0.00 | 48 | 1017.4 |
| 20260510131430 | 11 | 188 | 1.6 | 1.6 | 0.00 | 0.00 | 0.00 | 49 | 1017.1 |
| 20260510130926 | 10 | 81 | 1.6 | 3.2 | 0.00 | 0.00 | 0.00 | 51 | 1017.1 |
| 20260510130424 | 10 | 86 | 4.8 | 6.4 | 0.00 | 0.00 | 0.00 | 48 | 1017.1 |
| 20260510125921 | 10 | 57 | 3.2 | 3.2 | 0.00 | 0.00 | 0.00 | 50 | 1017.1 |
| 20260510125416 | 10 | 80 | 3.2 | 4.8 | 0.00 | 0.00 | 0.00 | 50 | 1017.1 |
| 20260510124913 | 10 | 117 | 1.6 | 1.6 | 0.00 | 0.00 | 0.00 | 51 | 1017.1 |
| 20260510124404 | 10 | 93 | 3.2 | 3.2 | 0.00 | 0.00 | 0.00 | 49 | 1016.8 |
| 20260510123900 | 10 | 191 | 1.6 | 1.6 | 0.00 | 0.00 | 0.00 | 50 | 1017.1 |
| 20260510123356 | 10 | 177 | 1.6 | 1.6 | 0.00 | 0.00 | 0.00 | 50 | 1016.8 |
| 20260510122852 | 10 | 43 | 3.2 | 4.8 | 0.00 | 0.00 | 0.00 | 49 | 1016.8 |
| 20260510122348 | 10 | 159 | 0.0 | 0.0 | 0.00 | 0.00 | 0.00 | 52 | 1016.8 |
| 20260510121844 | 10 | 173 | 1.6 | 1.6 | 0.00 | 0.00 | 0.00 | 53 | 1016.8 |
| 20260510121343 | 9 | 108 | 3.2 | 3.2 | 0.00 | 0.00 | 0.00 | 52 | 1016.8 |
| 20260510120839 | 9 | 123 | 1.6 | 3.2 | 0.00 | 0.00 | 0.00 | 53 | 1016.8 |
| 20260510120337 | 9 | 131 | 3.2 | 3.2 | 0.00 | 0.00 | 0.00 | 55 | 1016.8 |
| 20260510115832 | 8 | 142 | 0.0 | 1.6 | 0.00 | 0.00 | 0.00 | 59 | 1016.4 |
| 20260510115329 | 8 | 147 | 0.0 | 1.6 | 0.00 | 0.00 | 0.00 | 61 | 1016.4 |
| 20260510114825 | 8 | 113 | 1.6 | 3.2 | 0.00 | 0.00 | 0.00 | 63 | 1016.4 |
| 20260510114322 | 7 | 167 | 0.0 | 0.0 | 0.00 | 0.00 | 0.00 | 64 | 1016.4 |
| 20260510113817 | 7 | 177 | 0.0 | 1.6 | 0.00 | 0.00 | 0.00 | 64 | 1016.4 |
| 20260510113314 | 7 | 133 | 1.6 | 1.6 | 0.00 | 0.00 | 0.00 | 67 | 1016.4 |
| 20260510112811 | 7 | 170 | 0.0 | 0.0 | 0.00 | 0.00 | 0.00 | 68 | 1016.1 |
| 20260510112308 | 7 | 59 | 1.6 | 3.2 | 0.00 | 0.00 | 0.00 | 69 | 1016.1 |
| 20260510111804 | 7 | 181 | 1.6 | 1.6 | 0.00 | 0.00 | 0.00 | 71 | 1015.6 |
| 20260510111300 | 6 | 177 | 0.0 | 0.0 | 0.00 | 0.00 | 0.00 | 71 | 1015.6 |
| 20260510110800 | 6 | 164 | 0.0 | 0.0 | 0.00 | 0.00 | 0.00 | 73 | 1015.6 |
| 20260510110258 | 6 | 164 | 0.0 | 0.0 | 0.00 | 0.00 | 0.00 | 75 | 1015.6 |
| 20260510105758 | 5 | 160 | 0.0 | 0.0 | 0.00 | 0.00 | 0.00 | 79 | 1015.3 |
| 20260510105253 | 5 | 160 | 0.0 | 0.0 | 0.00 | 0.00 | 0.00 | 80 | 1015.6 |
| 20260510104750 | 5 | 160 | 0.0 | 0.0 | 0.00 | 0.00 | 0.00 | 79 | 1015.3 |
| 20260510104248 | 5 | 160 | 0.0 | 0.0 | 0.00 | 0.00 | 0.00 | 78 | 1015.3 |
| 20260510103743 | 5 | 160 | 0.0 | 0.0 | 0.00 | 0.00 | 0.00 | 78 | 1015.6 |
| 20260510103241 | 5 | 160 | 0.0 | 0.0 | 0.00 | 0.00 | 0.00 | 78 | 1015.3 |
| 20260510102740 | 5 | 160 | 0.0 | 0.0 | 0.00 | 0.00 | 0.00 | 77 | 1015.0 |
| 20260510102236 | 5 | 160 | 0.0 | 0.0 | 0.00 | 0.00 | 0.00 | 76 | 1015.6 |
| 20260510101734 | 5 | 160 | 0.0 | 0.0 | 0.00 | 0.00 | 0.00 | 75 | 1015.3 |
| 20260510101232 | 5 | 160 | 0.0 | 0.0 | 0.00 | 0.00 | 0.00 | 73 | 1015.0 |
| 20260510100728 | 5 | 160 | 0.0 | 0.0 | 0.00 | 0.00 | 0.00 | 73 | 1015.0 |
| 20260510100226 | 6 | 160 | 0.0 | 0.0 | 0.00 | 0.00 | 0.00 | 72 | 1015.0 |
| 20260510095721 | 6 | 160 | 0.0 | 0.0 | 0.00 | 0.00 | 0.00 | 71 | 1015.0 |
| 20260510095216 | 6 | 160 | 0.0 | 0.0 | 0.00 | 0.00 | 0.00 | 70 | 1015.0 |
| 20260510094715 | 7 | 160 | 0.0 | 0.0 | 0.00 | 0.00 | 0.00 | 68 | 1015.0 |
| 20260510094211 | 7 | 160 | 0.0 | 0.0 | 0.00 | 0.00 | 0.00 | 67 | 1014.6 |
| 20260510093707 | 7 | 160 | 0.0 | 0.0 | 0.00 | 0.00 | 0.00 | 66 | 1015.0 |
| 20260510093205 | 7 | 154 | 0.0 | 0.0 | 0.00 | 0.00 | 0.00 | 66 | 1015.0 |
| 20260510092701 | 7 | 155 | 0.0 | 0.0 | 0.00 | 0.00 | 0.00 | 66 | 1015.0 |
| 20260510092156 | 7 | 157 | 0.0 | 0.0 | 0.00 | 0.00 | 0.00 | 66 | 1014.6 |
| 20260510091652 | 7 | 171 | 0.0 | 0.0 | 0.00 | 0.00 | 0.00 | 66 | 1014.6 |
| 20260510091149 | 7 | 165 | 0.0 | 0.0 | 0.00 | 0.00 | 0.00 | 65 | 1014.3 |
| 20260510090646 | 7 | 164 | 0.0 | 0.0 | 0.00 | 0.00 | 0.00 | 65 | 1014.6 |
| 20260510090142 | 8 | 168 | 0.0 | 0.0 | 0.00 | 0.00 | 0.00 | 64 | 1014.3 |
| 20260510085637 | 7 | 186 | 0.0 | 1.6 | 0.00 | 0.00 | 0.00 | 64 | 1013.9 |
| 20260510085132 | 8 | 151 | 0.0 | 0.0 | 0.00 | 0.00 | 0.00 | 63 | 1013.9 |
| 20260510084629 | 8 | 166 | 0.0 | 1.6 | 0.00 | 0.00 | 0.00 | 62 | 1013.9 |
| 20260510084126 | 8 | 119 | 0.0 | 1.6 | 0.00 | 0.00 | 0.00 | 62 | 1013.6 |
| 20260510083623 | 8 | 142 | 0.0 | 1.6 | 0.00 | 0.00 | 0.00 | 61 | 1013.6 |
| 20260510083119 | 8 | 54 | 3.2 | 4.8 | 0.00 | 0.00 | 0.00 | 61 | 1013.6 |
| 20260510082616 | 8 | 149 | 0.0 | 0.0 | 0.00 | 0.00 | 0.00 | 61 | 1013.6 |
| 20260510082112 | 8 | 124 | 1.6 | 1.6 | 0.00 | 0.00 | 0.00 | 60 | 1013.3 |
| 20260510081612 | 8 | 85 | 3.2 | 3.2 | 0.00 | 0.00 | 0.00 | 61 | 1013.3 |
| 20260510081108 | 8 | 159 | 0.0 | 0.0 | 0.00 | 0.00 | 0.00 | 61 | 1013.3 |
| 20260510080602 | 9 | 107 | 1.6 | 3.2 | 0.00 | 0.00 | 0.00 | 59 | 1012.9 |
| 20260510080059 | 9 | 147 | 0.0 | 0.0 | 0.00 | 0.00 | 0.00 | 60 | 1012.9 |
| 20260510075556 | 9 | 111 | 3.2 | 4.8 | 0.00 | 0.00 | 0.00 | 60 | 1012.6 |
| 20260510075053 | 9 | 143 | 1.6 | 1.6 | 0.00 | 0.00 | 0.00 | 59 | 1012.6 |
| 20260510074550 | 10 | 144 | 1.6 | 1.6 | 0.00 | 0.00 | 0.00 | 58 | 1012.6 |
| 20260510074045 | 10 | 122 | 3.2 | 6.4 | 0.00 | 0.00 | 0.00 | 59 | 1012.3 |
| 20260510073542 | 10 | 150 | 1.6 | 3.2 | 0.00 | 0.00 | 0.00 | 60 | 1012.3 |
| 20260510073039 | 10 | 147 | 0.0 | 1.6 | 0.00 | 0.00 | 0.00 | 60 | 1011.9 |
| 20260510072536 | 10 | 54 | 1.6 | 3.2 | 0.00 | 0.00 | 0.00 | 60 | 1011.9 |
| 20260510072031 | 10 | 64 | 3.2 | 4.8 | 0.00 | 0.00 | 0.00 | 61 | 1011.9 |
| 20260510071527 | 10 | 38 | 3.2 | 4.8 | 0.00 | 0.00 | 0.00 | 60 | 1011.6 |
| 20260510071026 | 10 | 111 | 3.2 | 4.8 | 0.00 | 0.00 | 0.00 | 61 | 1011.6 |
| 20260510070522 | 10 | 124 | 3.2 | 3.2 | 0.00 | 0.00 | 0.00 | 62 | 1011.2 |
| 20260510070019 | 11 | 123 | 1.6 | 1.6 | 0.00 | 0.00 | 0.00 | 61 | 1011.6 |
| 20260510065515 | 10 | 34 | 1.6 | 4.8 | 0.00 | 0.00 | 0.00 | 61 | 1011.2 |
| 20260510065011 | 10 | 79 | 1.6 | 3.2 | 0.00 | 0.00 | 0.00 | 61 | 1011.2 |
| 20260510064509 | 10 | 102 | 3.2 | 3.2 | 0.00 | 0.00 | 0.00 | 61 | 1011.6 |
| 20260510064005 | 11 | 145 | 0.0 | 1.6 | 0.00 | 0.00 | 0.00 | 61 | 1011.2 |
| 20260510063502 | 11 | 89 | 1.6 | 3.2 | 0.00 | 0.00 | 0.00 | 60 | 1011.2 |
| 20260510062959 | 11 | 129 | 0.0 | 1.6 | 0.00 | 0.00 | 0.00 | 59 | 1011.6 |
| 20260510062455 | 11 | 125 | 1.6 | 1.6 | 0.00 | 0.00 | 0.00 | 59 | 1011.2 |
| 20260510061950 | 11 | 122 | 1.6 | 1.6 | 0.00 | 0.00 | 0.00 | 61 | 1011.2 |
| 20260510061447 | 11 | 156 | 0.0 | 1.6 | 0.00 | 0.00 | 0.00 | 63 | 1011.2 |
| 20260510060943 | 11 | 330 | 1.6 | 3.2 | 0.00 | 0.00 | 0.00 | 64 | 1011.2 |
| 20260510060441 | 11 | 141 | 0.0 | 1.6 | 0.00 | 0.00 | 0.00 | 64 | 1011.2 |
| 20260510055936 | 11 | 116 | 1.6 | 1.6 | 0.00 | 0.00 | 0.00 | 64 | 1010.9 |
| 20260510055432 | 10 | 115 | 0.0 | 1.6 | 0.00 | 0.00 | 0.00 | 69 | 1011.2 |
| 20260510054930 | 10 | 168 | 0.0 | 0.0 | 0.00 | 0.00 | 0.00 | 70 | 1011.2 |
| 20260510054425 | 10 | 168 | 0.0 | 0.0 | 0.00 | 0.00 | 0.00 | 69 | 1010.9 |
| 20260510053921 | 10 | 168 | 0.0 | 0.0 | 0.00 | 0.00 | 0.00 | 68 | 1010.9 |
| 20260510053417 | 11 | 167 | 0.0 | 0.0 | 0.00 | 0.00 | 0.00 | 67 | 1010.5 |
| 20260510052913 | 11 | 168 | 0.0 | 0.0 | 0.00 | 0.00 | 0.00 | 65 | 1010.5 |
| 20260510052409 | 11 | 168 | 0.0 | 0.0 | 0.00 | 0.00 | 0.00 | 66 | 1010.5 |
| 20260510051905 | 11 | 174 | 0.0 | 0.0 | 0.00 | 0.00 | 0.00 | 66 | 1010.5 |
| 20260510051402 | 11 | 174 | 0.0 | 0.0 | 0.00 | 0.00 | 0.00 | 67 | 1010.5 |
| 20260510050858 | 11 | 174 | 0.0 | 0.0 | 0.00 | 0.00 | 0.00 | 68 | 1010.1 |
| 20260510050355 | 11 | 173 | 0.0 | 0.0 | 0.00 | 0.00 | 0.00 | 66 | 1009.8 |
| 20260510045852 | 11 | 174 | 0.0 | 0.0 | 0.00 | 0.00 | 0.00 | 65 | 1009.8 |
| 20260510045349 | 11 | 174 | 0.0 | 0.0 | 0.00 | 0.00 | 0.00 | 64 | 1009.8 |
| 20260510044846 | 12 | 174 | 0.0 | 0.0 | 0.00 | 0.00 | 0.00 | 62 | 1009.4 |
| 20260510044343 | 12 | 174 | 0.0 | 0.0 | 0.00 | 0.00 | 0.00 | 61 | 1009.4 |
| 20260510043839 | 12 | 174 | 0.0 | 0.0 | 0.00 | 0.00 | 0.00 | 61 | 1009.4 |
| 20260510043335 | 12 | 174 | 0.0 | 0.0 | 0.00 | 0.00 | 0.00 | 60 | 1009.4 |
| 20260510042833 | 12 | 164 | 0.0 | 0.0 | 0.00 | 0.00 | 0.00 | 60 | 1009.4 |
| 20260510042329 | 12 | 164 | 0.0 | 0.0 | 0.00 | 0.00 | 0.00 | 59 | 1009.1 |
| 20260510041826 | 13 | 163 | 0.0 | 0.0 | 0.00 | 0.00 | 0.00 | 58 | 1009.1 |
| 20260510041323 | 13 | 163 | 0.0 | 0.0 | 0.00 | 0.00 | 0.00 | 57 | 1009.1 |
| 20260510040820 | 13 | 167 | 0.0 | 0.0 | 0.00 | 0.00 | 0.00 | 56 | 1009.4 |
| 20260510040316 | 13 | 157 | 0.0 | 0.0 | 0.00 | 0.00 | 0.00 | 55 | 1009.4 |
| 20260510035812 | 13 | 179 | 0.0 | 0.0 | 0.00 | 0.13 | 0.13 | 55 | 1009.1 |
| 20260510035309 | 13 | 155 | 0.0 | 0.0 | 0.00 | 0.13 | 0.13 | 53 | 1009.1 |
| 20260510034804 | 14 | 177 | 0.0 | 0.0 | 0.00 | 0.13 | 0.13 | 53 | 1008.8 |
| 20260510034302 | 14 | 107 | 1.6 | 1.6 | 0.00 | 0.13 | 0.13 | 52 | 1009.1 |
| 20260510033758 | 15 | 194 | 1.6 | 1.6 | 0.00 | 0.13 | 0.13 | 51 | 1008.8 |
| 20260510033255 | 15 | 167 | 0.0 | 0.0 | 0.00 | 0.13 | 0.13 | 52 | 1008.8 |
| 20260510032752 | 15 | 210 | 1.6 | 3.2 | 0.00 | 0.13 | 0.13 | 51 | 1008.4 |
| 20260510032248 | 15 | 170 | 0.0 | 0.0 | 0.00 | 0.13 | 0.13 | 51 | 1008.8 |
| 20260510031743 | 15 | 162 | 0.0 | 0.0 | 0.00 | 0.13 | 0.13 | 50 | 1008.8 |
| 20260510031239 | 15 | 46 | 3.2 | 4.8 | 0.00 | 0.13 | 0.13 | 50 | 1008.4 |
| 20260510030738 | 15 | 192 | 1.6 | 1.6 | 0.00 | 0.13 | 0.13 | 49 | 1008.4 |
| 20260510030231 | 15 | 147 | 0.0 | 1.6 | 0.00 | 0.13 | 0.13 | 49 | 1008.1 |
| 20260510025728 | 15 | 187 | 1.6 | 1.6 | 0.00 | 0.13 | 0.13 | 48 | 1008.1 |
| 20260510025225 | 16 | 195 | 3.2 | 4.8 | 0.00 | 0.13 | 0.13 | 48 | 1008.1 |
| 20260510024722 | 16 | 183 | 1.6 | 3.2 | 0.00 | 0.13 | 0.13 | 48 | 1008.1 |
| 20260510024214 | 16 | 159 | 0.0 | 0.0 | 0.00 | 0.13 | 0.13 | 47 | 1007.7 |
| 20260510023708 | 16 | 163 | 1.6 | 3.2 | 0.00 | 0.13 | 0.13 | 47 | 1007.7 |
| 20260510023206 | 16 | 178 | 1.6 | 1.6 | 0.00 | 0.13 | 0.13 | 46 | 1007.7 |
| 20260510022702 | 17 | 152 | 1.6 | 1.6 | 0.00 | 0.13 | 0.13 | 46 | 1007.4 |
| 20260510022156 | 17 | 174 | 4.8 | 4.8 | 0.00 | 0.13 | 0.13 | 48 | 1007.1 |
| 20260510021652 | 17 | 214 | 6.4 | 12.9 | 0.00 | 0.13 | 0.13 | 49 | 1007.1 |
| 20260510021149 | 17 | 211 | 1.6 | 3.2 | 0.00 | 0.13 | 0.13 | 51 | 1006.7 |
| 20260510020644 | 17 | 175 | 0.0 | 1.6 | 0.00 | 0.13 | 0.13 | 51 | 1006.4 |
| 20260510020139 | 17 | 178 | 1.6 | 1.6 | 0.00 | 0.13 | 0.13 | 52 | 1006.4 |
| 20260510015635 | 17 | 184 | 0.0 | 0.0 | 0.00 | 0.13 | 0.13 | 51 | 1006.4 |
| 20260510015133 | 17 | 60 | 6.4 | 6.4 | 0.00 | 0.13 | 0.13 | 50 | 1006.4 |
| 20260510014627 | 17 | 96 | 6.4 | 6.4 | 0.00 | 0.13 | 0.13 | 52 | 1006.1 |
| 20260510014125 | 16 | 119 | 1.6 | 1.6 | 0.00 | 0.13 | 0.13 | 55 | 1006.1 |
| 20260510013625 | 16 | 179 | 0.0 | 0.0 | 0.00 | 0.13 | 0.13 | 58 | 1005.6 |
| 20260510013121 | 16 | 178 | 0.0 | 0.0 | 0.00 | 0.13 | 0.13 | 58 | 1005.6 |
| 20260510012620 | 16 | 178 | 0.0 | 0.0 | 0.00 | 0.13 | 0.13 | 58 | 1005.3 |
| 20260510012117 | 16 | 178 | 0.0 | 0.0 | 0.00 | 0.13 | 0.13 | 55 | 1004.9 |
| 20260510011617 | 16 | 178 | 0.0 | 0.0 | 0.00 | 0.13 | 0.13 | 55 | 1004.9 |
| 20260510011113 | 16 | 178 | 0.0 | 0.0 | 0.00 | 0.13 | 0.13 | 54 | 1004.9 |
| 20260510010609 | 16 | 178 | 0.0 | 0.0 | 0.00 | 0.13 | 0.13 | 53 | 1004.6 |
| 20260510010107 | 17 | 178 | 0.0 | 0.0 | 0.00 | 0.13 | 0.13 | 51 | 1004.9 |
| 20260510005602 | 17 | 178 | 0.0 | 0.0 | 0.00 | 0.13 | 0.13 | 50 | 1004.9 |
| 20260510005100 | 17 | 178 | 0.0 | 0.0 | 0.00 | 0.13 | 0.13 | 48 | 1004.6 |
| 20260510004558 | 18 | 185 | 0.0 | 0.0 | 0.00 | 0.13 | 0.13 | 47 | 1004.6 |
| 20260510004056 | 18 | 189 | 0.0 | 1.6 | 0.00 | 0.13 | 0.13 | 45 | 1004.6 |
| 20260510003552 | 18 | 199 | 0.0 | 0.0 | 0.00 | 0.13 | 0.13 | 44 | 1004.3 |
| 20260510003048 | 19 | 200 | 0.0 | 0.0 | 0.00 | 0.13 | 0.13 | 44 | 1004.3 |
| 20260510002543 | 19 | 212 | 3.2 | 3.2 | 0.00 | 0.13 | 0.13 | 42 | 1004.3 |
| 20260510002040 | 20 | 205 | 1.6 | 1.6 | 0.00 | 0.13 | 0.13 | 42 | 1004.3 |
| 20260510001537 | 20 | 261 | 4.8 | 4.8 | 0.00 | 0.13 | 0.13 | 41 | 1004.3 |
| 20260510001036 | 20 | 193 | 1.6 | 3.2 | 0.00 | 0.13 | 0.13 | 41 | 1004.3 |
| 20260510000530 | 20 | 198 | 1.6 | 1.6 | 0.00 | 0.13 | 0.13 | 40 | 1004.3 |
| 20260510000027 | 20 | 226 | 4.8 | 4.8 | 0.00 | 0.13 | 0.13 | 39 | 1003.9 |
| 20260509235524 | 20 | 209 | 3.2 | 4.8 | 0.00 | 0.13 | 0.13 | 39 | 1003.9 |
| 20260509235021 | 20 | 260 | 6.4 | 6.4 | 0.00 | 0.13 | 0.13 | 39 | 1003.9 |
| 20260509234517 | 20 | 294 | 8.0 | 11.3 | 0.00 | 0.13 | 0.13 | 38 | 1003.9 |
| 20260509234016 | 20 | 265 | 1.6 | 4.8 | 0.00 | 0.13 | 0.13 | 38 | 1003.9 |
| 20260509233513 | 20 | 265 | 4.8 | 6.4 | 0.00 | 0.13 | 0.13 | 39 | 1004.3 |
| 20260509233010 | 20 | 182 | 3.2 | 3.2 | 0.00 | 0.13 | 0.13 | 38 | 1003.9 |
| 20260509232506 | 20 | 225 | 8.0 | 11.3 | 0.00 | 0.13 | 0.13 | 38 | 1003.9 |
| 20260509232003 | 21 | 251 | 1.6 | 3.2 | 0.00 | 0.13 | 0.13 | 38 | 1003.6 |
| 20260509231459 | 21 | 297 | 12.9 | 17.7 | 0.00 | 0.13 | 0.13 | 37 | 1003.9 |
| 20260509230957 | 21 | 305 | 14.5 | 17.7 | 0.00 | 0.13 | 0.13 | 37 | 1003.9 |
| 20260509230453 | 21 | 243 | 4.8 | 4.8 | 0.00 | 0.13 | 0.13 | 38 | 1003.9 |
| 20260509225950 | 21 | 119 | 6.4 | 9.7 | 0.00 | 0.13 | 0.13 | 37 | 1003.6 |
| 20260509225446 | 21 | 290 | 6.4 | 6.4 | 0.00 | 0.13 | 0.13 | 36 | 1003.6 |
| 20260509224942 | 21 | 293 | 8.0 | 12.9 | 0.00 | 0.13 | 0.13 | 36 | 1003.2 |